Location: American Medical Response
(33.3472°N, 96.5511°W)
Time: 13:07:16
(UTC+00:00)

Cosmos 1805 Rocket - Pass Details

Date: 11 July 2022
Orbit: 605 x 629 km, 82.5° (Epoch: 12 August)

Event Time Altitude Azimuth Distance (km) Brightness Sun altitude
Exits shadow 09:23:12 33° 287° (WNW) 1,050 4.5 -21.1°
Drops below altitude 10° 09:26:56 10° 345° (NNW) 1,978 6.5 -20.6°
Sets 09:29:21 0° 356° (N) 2,883 7.6 -20.3°
